[[{"header":{"parameterUnit":"m.s-1","parameterCategory":1,"la1":30.2991,"la2":30.254,"lo1":-89.0895,"lo2":-89.0444,"dy":0.0017,"dx":0.0017,"nx":28,"ny":28,"refTime":"2025-01-21T09:00:00:Z","depth":0,"parameterNumber":2,"parameterNumberName":"U-component_of_WINDS"},"data":[0,0,0,0,0,0,0,0,0,0,0,0,0,0,0,0,0,0,0,0,0,0,0,0,0,0,0,0,0,0,0,0,0,0,0,0,0,0,0,0,0,0,0,0,0,0,0,0,0,0,0,0,0,0,0,0,0,0,-3.5523,-3.5525,0,-3.5715,-3.5717,-3.5719,-3.5688,-3.5685,-3.5681,-3.5678,-3.5877,-3.5885,-3.5893,0,0,0,0,0,0,0,0,0,0,0,0,0,-3.5129,-3.5136,-3.5522,-3.5525,-3.5527,-3.5714,-3.5717,-3.572,-3.5688,-3.5684,-3.568,-3.5677,-3.5874,-3.5884,-3.5894,0,0,0,0,0,0,0,0,0,0,0,0,0,-3.5308,-3.5139,-3.5522,-3.5534,-3.5537,-3.5714,-3.5717,-3.572,-3.5689,-3.5684,-3.5679,-3.5675,-3.5871,-3.5883,-3.5895,-3.6072,0,0,-3.5934,-3.5939,0,0,0,0,0,0,0,0,-3.5298,-3.5323,-3.553,-3.5534,-3.5537,-3.5672,-3.5651,-3.5838,-3.5691,-3.5632,-3.5678,-3.5672,-3.5813,-3.583,-3.5877,-3.6082,-3.609,-3.5935,-3.5942,-3.5948,-3.5951,0,0,0,0,0,0,0,-3.5286,-3.5314,-3.5598,-3.5533,-3.5538,-3.553,-3.555,-3.5686,-3.5748,-3.5636,-3.5635,-3.5658,-3.5814,-3.5865,-3.5881,-3.6093,-3.5934,-3.5946,-3.5953,-3.5958,-3.6452,-3.6457,0,0,0,0,0,0,-3.527,-3.5304,-3.5592,-3.5604,-3.5403,-3.5541,-3.5564,-3.5634,-3.5746,-3.5759,-3.5662,-3.5655,-3.5846,-3.5867,-3.5888,-3.6103,-3.5948,-3.596,-3.5967,-3.6447,-3.6453,-3.6459,0,0,0,0,0,0,-3.5261,-3.5296,-3.5585,-3.5454,-3.549,-3.5553,-3.5633,-3.564,-3.5691,-3.5765,-3.5776,-3.5703,-3.5843,-3.587,-3.6027,-3.611,-3.5965,-3.5977,-3.644,-3.6449,-3.6456,-3.6535,0,0,0,0,0,0,-3.525,-3.5293,-3.5361,-3.5456,-3.5497,-3.572,-3.5638,-3.5648,-3.5713,-3.5707,-3.5807,-3.5818,-3.5841,-3.6008,-3.6039,-3.6124,-3.5986,-3.6433,-3.6444,-3.6454,-3.6525,-3.6545,-3.6561,0,0,0,0,0,-3.5236,-3.5376,-3.5365,-3.54,-3.5584,-3.5725,-3.5749,-3.5772,-3.572,-3.5789,-3.5836,-3.5815,-3.6095,-3.6024,-3.6059,-3.6149,-3.6428,-3.6441,-3.6453,-3.6517,-3.6541,-3.6561,0,0,0,0,0,0,-3.5291,-3.5389,-3.5377,-3.5552,-3.563,-3.5719,-3.5808,-3.5796,-3.5892,-3.5882,-3.5906,-3.5929,-3.6087,-3.6133,-3.6053,-3.6326,-3.6254,-3.6274,-3.6291,-3.6314,-3.6332,-3.6319,-3.5997,0,0,0,0,0,-3.5323,-3.5429,-3.5509,-3.5655,-3.5695,-3.5744,-3.5807,-3.5817,-3.59,-3.5933,-3.5992,-3.6073,-3.6179,-3.6249,-3.635,-3.653,-3.6552,-3.6609,-3.6627,-3.6642,-3.666,-3.6758,-3.6785,-3.6501,-3.6501,-3.65,0,0,-3.5391,-3.5457,-3.5523,-3.5668,-3.573,-3.584,-3.5773,-3.5892,-3.5974,-3.5951,-3.6103,-3.6148,-3.624,-3.6409,-3.6486,-3.6452,-3.6743,-3.6658,-3.6669,-3.668,-3.6774,-3.6801,-3.6825,-3.6509,-3.6508,-3.6506,0,0,-3.5571,-3.5632,-3.576,-3.5823,-3.5918,-3.5949,-3.598,-3.6071,-3.61,-3.6252,-3.6237,-3.6334,-3.6516,-3.6582,-3.664,-3.6843,-3.6827,-3.6875,-3.6971,-3.7067,-3.7089,-3.7109,-3.7183,-3.7208,-3.6892,-3.6892,-3.6892,0,-3.5644,-3.5809,-3.5828,-3.5949,-3.6013,-3.5996,-3.6126,-3.6186,-3.6309,-3.6354,-3.6313,-3.6541,-3.6602,-3.6786,-3.6835,-3.6882,-3.6918,-3.6865,-3.7084,-3.7105,-3.7124,-3.7194,-3.7221,-3.6897,-3.6897,-3.6896,-3.6896,0,-3.5895,-3.6009,-3.6101,-3.622,-3.6293,-3.6419,-3.6456,-3.6529,-3.6532,-3.6567,-3.6721,-3.6793,-3.6909,-3.6953,-3.6957,-3.7137,-3.7113,-3.7078,-3.7007,-3.7156,-3.7222,-3.7249,-3.6905,-3.6903,-3.6901,-3.69,0,0,-3.6118,-3.6243,-3.6277,-3.633,-3.6432,-3.6521,-3.6644,-3.6756,-3.6818,-3.6902,-3.7007,-3.716,-3.7128,-3.7193,-3.7205,-3.7288,-3.7445,-3.7243,-3.7246,-3.7279,-3.7648,-3.7675,-3.7706,-3.7434,-3.7439,-3.7443,-3.7641,0,-3.6309,-3.6528,-3.6547,-3.6743,-3.6849,-3.6833,-3.694,-3.7014,-3.705,-3.7145,-3.7184,-3.7293,-3.7242,-3.7281,-3.7363,-3.7409,-3.752,-3.7394,-3.7533,-3.7537,-3.7512,-3.7741,-3.777,-3.7953,-3.7667,-3.7671,-3.7674,0,-3.6563,-3.6654,-3.686,-3.6946,-3.6991,-3.7087,-3.7191,-3.7282,-3.7364,-3.7384,-3.7456,-3.7456,-3.7582,-3.7504,-3.7679,-3.7593,-3.765,-3.7681,-3.7689,-3.7705,-3.7617,-3.7764,-3.8012,-3.804,-3.7715,-3.7712,-3.7709,0,-3.6707,-3.688,-3.7026,-3.7072,-3.7175,-3.7243,-3.7289,-3.7367,-3.7433,-3.7523,-3.7566,-3.767,-3.7728,-3.7808,-3.7836,-3.7776,-3.801,-3.7934,-3.8031,-3.8031,-3.8084,-3.808,-3.8346,-3.8117,-3.8116,-3.8116,-3.8115,0,-3.692,-3.7047,-3.7092,-3.7183,-3.7324,-3.7344,-3.7484,-3.7527,-3.7595,-3.7693,-3.7685,-3.7777,-3.7806,-3.7903,-3.7925,-3.8067,-3.8093,-3.8113,-3.8118,-3.8116,-3.8113,-3.8155,-3.8144,-3.8123,-3.8122,-3.812,-3.8119,0,-3.7106,-3.7141,-3.7299,-3.7383,-3.7407,-3.7508,-3.758,-3.7666,-3.7699,-3.7823,-3.7853,-3.7905,-3.8019,-3.8053,-3.819,-3.8205,-3.8372,-3.8364,-3.8344,-3.8345,-3.8441,-3.8432,-3.8745,-3.8787,-3.8528,-3.8531,-3.8533,0,-3.7241,-3.7338,-3.7432,-3.7496,-3.7545,-3.7649,-3.7716,-3.7738,-3.7808,-3.7908,-3.7983,-3.8095,-3.8186,-3.8368,-3.8419,-3.8523,-3.8519,-3.8621,-3.8535,-3.8529,-3.8522,-3.8517,-3.8527,-3.8638,-3.8641,-3.8643,-3.8645,0,-3.7476,-3.7488,-3.7585,-3.7687,-3.7767,-3.7848,-3.7927,-3.798,-3.8014,-3.8093,-3.8208,-3.8279,-3.8418,-3.8529,-3.8635,-3.8682,-3.867,-3.8671,-3.8699,-3.8699,-3.8684,-3.8695,-3.839,-3.8665,-3.8663,-3.8661,-3.866,-3.8659,-3.7642,-3.7728,-3.7807,-3.7914,-3.7975,-3.8048,-3.8134,-3.8176,-3.8273,-3.8388,-3.8394,-3.852,-3.8598,-3.8739,-3.8791,-3.8889,-3.886,-3.8901,-3.8911,-3.8922,-3.893,-3.8666,-3.8908,-3.8908,-3.8907,-3.8907,-3.8907,0,-3.7879,-3.7928,-3.8026,-3.8136,-3.822,-3.8199,-3.8284,-3.8356,-3.8467,-3.8541,-3.863,-3.8762,-3.8869,-3.8927,-3.9034,-3.9101,-3.9098,-3.9129,-3.9125,-3.9136,-3.895,-3.8915,-3.9129,-3.9129,-3.9129,-3.9129,-3.9129,-3.9129,-3.8012,-3.8156,-3.8177,-3.8351,-3.8399,-3.8521,-3.8572,-3.8639,-3.8698,-3.8846,-3.8935,-3.8971,-3.9039,-3.915,-3.9247,-3.9261,-3.9302,-3.9336,-3.9347,-3.9172,-3.915,-3.9128,-3.9096,-3.9344,-3.9344,-3.9526,-3.9527,-3.9529]},{"header":{"parameterUnit":"m.s-1","parameterCategory":1,"la1":30.2991,"la2":30.254,"lo1":-89.0895,"lo2":-89.0444,"dy":0.0017,"dx":0.0017,"nx":28,"ny":28,"refTime":"2025-01-21T09:00:00:Z","depth":0,"parameterNumber":3,"parameterNumberName":"V-component_of_WINDS"},"data":[0,0,0,0,0,0,0,0,0,0,0,0,0,0,0,0,0,0,0,0,0,0,0,0,0,0,0,0,0,0,0,0,0,0,0,0,0,0,0,0,0,0,0,0,0,0,0,0,0,0,0,0,0,0,0,0,0,0,-8.9207,-8.9208,0,-8.9284,-8.9285,-8.9286,-8.9154,-8.915,-8.9145,-8.9141,-8.9216,-8.9222,-8.9228,0,0,0,0,0,0,0,0,0,0,0,0,0,-8.894,-8.8946,-8.9207,-8.9208,-8.9209,-8.9284,-8.9285,-8.9286,-8.9155,-8.915,-8.9144,-8.9139,-8.9214,-8.9221,-8.9228,0,0,0,0,0,0,0,0,0,0,0,0,0,-8.9041,-8.8948,-8.9207,-8.9153,-8.9149,-8.9284,-8.9285,-8.9287,-8.9156,-8.915,-8.9143,-8.9137,-8.9211,-8.922,-8.9229,-8.9419,0,0,-8.9257,-8.9261,0,0,0,0,0,0,0,0,-8.9035,-8.9051,-8.916,-8.9157,-8.9153,-8.9203,-8.9218,-8.9331,-8.9158,-8.9153,-8.9141,-8.9133,-8.9217,-8.9225,-8.9254,-8.9423,-8.9426,-8.9258,-8.9264,-8.9268,-8.927,0,0,0,0,0,0,0,-8.9029,-8.9047,-8.9237,-8.9162,-8.9157,-8.9123,-8.913,-8.9239,-8.9221,-8.9153,-8.9144,-8.9155,-8.9213,-8.9245,-8.9255,-8.9427,-8.9258,-8.9266,-8.9272,-8.9275,-8.9754,-8.9761,0,0,0,0,0,0,-8.9029,-8.9042,-8.9235,-8.924,-8.9076,-8.9133,-8.9141,-8.9193,-8.922,-8.9217,-8.9161,-8.9149,-8.9233,-8.9244,-8.9257,-8.948,-8.9268,-8.9276,-8.9282,-8.9747,-8.9755,-8.9763,0,0,0,0,0,0,-8.9024,-8.9048,-8.9232,-8.9138,-8.9159,-8.9145,-8.9205,-8.9199,-8.923,-8.9225,-8.9221,-8.9197,-8.9228,-8.9244,-8.938,-8.9481,-8.928,-8.9289,-8.9738,-8.9749,-8.9759,-8.9929,0,0,0,0,0,0,-8.9017,-8.9046,-8.912,-8.9141,-8.9165,-8.9356,-8.9211,-8.9205,-8.9247,-8.9232,-8.9259,-8.9256,-8.9224,-8.9367,-8.9389,-8.949,-8.9296,-8.9729,-8.9743,-8.9756,-8.9915,-8.9945,-8.997,0,0,0,0,0,-8.9008,-8.9164,-8.9125,-8.9149,-8.9257,-8.9362,-8.9376,-8.9337,-8.9256,-8.9329,-8.9325,-8.9256,-8.9466,-8.9382,-8.9406,-8.9511,-8.9723,-8.9739,-8.9755,-8.9902,-8.9939,-8.997,0,0,0,0,0,0,-8.9154,-8.9166,-8.9122,-8.9291,-8.9327,-8.934,-8.9431,-8.9377,-8.9435,-8.9419,-8.9366,-8.9373,-8.9519,-8.9528,-8.9434,-8.9695,-8.958,-8.9602,-8.9684,-8.9719,-8.9746,-8.9741,-8.9304,0,0,0,0,0,-8.9207,-8.9293,-8.9298,-8.9446,-8.9466,-8.9446,-8.949,-8.9457,-8.9491,-8.9506,-8.9512,-8.9547,-8.962,-8.967,-8.9737,-8.9915,-8.9918,-8.9999,-9.0027,-9.0049,-9.0069,-9.0162,-9.0197,-8.9816,-8.9816,-8.9816,0,0,-8.9315,-8.9332,-8.9389,-8.9476,-8.95,-8.9588,-8.946,-8.9559,-8.9624,-8.952,-8.9649,-8.9655,-8.969,-8.9848,-8.9917,-8.986,-9.0174,-9.007,-9.0088,-9.0095,-9.0182,-9.0218,-9.025,-8.9827,-8.9825,-8.9824,0,0,-8.9557,-8.958,-8.9705,-8.9732,-8.977,-8.9755,-8.9786,-8.9807,-8.9807,-8.9936,-8.986,-8.9935,-9.0064,-9.0091,-9.0122,-9.0374,-9.0312,-9.0397,-9.0543,-9.0634,-9.0664,-9.069,-9.0779,-9.0812,-9.0417,-9.0417,-9.0417,0,-8.9687,-8.982,-8.9776,-8.9881,-8.9921,-8.9832,-8.9957,-8.9984,-9.0042,-9.0071,-9.0006,-9.0164,-9.0182,-9.0343,-9.0405,-9.0433,-9.0465,-9.0394,-9.0664,-9.0689,-9.0713,-9.0797,-9.0831,-9.0427,-9.0426,-9.0425,-9.0424,0,-8.9976,-9.0069,-9.0165,-9.0225,-9.0275,-9.039,-9.0362,-9.0417,-9.0379,-9.0371,-9.0502,-9.0519,-9.0588,-9.0624,-9.0588,-9.0781,-9.0744,-9.0672,-9.0556,-9.0761,-9.0839,-9.0871,-9.0442,-9.0438,-9.0435,-9.0433,0,0,-9.0314,-9.0348,-9.0384,-9.041,-9.0445,-9.0515,-9.0624,-9.0693,-9.0741,-9.0783,-9.0873,-9.0983,-9.0917,-9.0952,-9.0917,-9.0998,-9.1195,-9.0915,-9.0915,-9.0966,-9.1407,-9.1461,-9.1499,-9.1153,-9.1159,-9.1164,-9.1404,0,-9.0555,-9.0747,-9.071,-9.0896,-9.098,-9.0896,-9.0991,-9.1022,-9.1016,-9.1085,-9.1078,-9.1157,-9.1064,-9.1084,-9.116,-9.1155,-9.1282,-9.1137,-9.1234,-9.1239,-9.1229,-9.154,-9.1597,-9.1823,-9.1434,-9.1439,-9.1443,0,-9.0862,-9.0918,-9.1113,-9.1133,-9.1167,-9.1254,-9.1313,-9.1381,-9.1413,-9.1403,-9.1442,-9.1392,-9.1498,-9.1381,-9.1526,-9.1428,-9.1465,-9.1469,-9.1476,-9.1484,-9.1353,-9.1555,-9.1893,-9.1927,-9.1491,-9.1487,-9.1483,0,-9.1089,-9.1212,-9.1344,-9.1368,-9.1396,-9.1458,-9.1472,-9.1498,-9.1541,-9.1592,-9.1619,-9.1682,-9.1716,-9.1764,-9.1732,-9.1649,-9.1882,-9.1762,-9.1875,-9.1876,-9.1928,-9.1925,-9.2277,-9.1953,-9.1953,-9.1952,-9.1951,0,-9.1362,-9.1484,-9.1446,-9.1528,-9.1661,-9.1616,-9.1749,-9.1753,-9.1776,-9.1855,-9.1785,-9.186,-9.1812,-9.1883,-9.1858,-9.1981,-9.1997,-9.1991,-9.1982,-9.1997,-9.1998,-9.2021,-9.2004,-9.1961,-9.1959,-9.1957,-9.1956,0,-9.1638,-9.1618,-9.1756,-9.1771,-9.1777,-9.1875,-9.1886,-9.196,-9.1949,-9.205,-9.2071,-9.2053,-9.2132,-9.2104,-9.2189,-9.2171,-9.2328,-9.23,-9.2319,-9.2311,-9.2426,-9.2415,-9.2805,-9.2853,-9.2498,-9.2502,-9.2505,0,-9.1814,-9.1906,-9.1931,-9.1979,-9.1999,-9.2078,-9.2122,-9.208,-9.2128,-9.2171,-9.224,-9.2314,-9.237,-9.2501,-9.2494,-9.2558,-9.253,-9.2662,-9.2539,-9.255,-9.2531,-9.2526,-9.2534,-9.2686,-9.2691,-9.2694,-9.2697,0,-9.2127,-9.2112,-9.2179,-9.2243,-9.2298,-9.2346,-9.2387,-9.243,-9.239,-9.2448,-9.2529,-9.2573,-9.2659,-9.2732,-9.2789,-9.2801,-9.2743,-9.2735,-9.2765,-9.2781,-9.2787,-9.2784,-9.2385,-9.2727,-9.2724,-9.2721,-9.272,-9.2719,-9.2358,-9.2436,-9.2465,-9.2542,-9.2568,-9.2608,-9.2679,-9.2677,-9.2744,-9.2812,-9.2783,-9.2876,-9.2903,-9.2974,-9.2994,-9.3064,-9.3013,-9.3056,-9.3067,-9.3078,-9.3093,-9.2776,-9.3075,-9.3074,-9.3073,-9.3072,-9.3071,0,-9.2668,-9.2682,-9.2753,-9.2813,-9.2873,-9.2814,-9.2855,-9.2909,-9.2992,-9.3024,-9.3081,-9.3173,-9.3243,-9.3242,-9.3307,-9.3363,-9.3338,-9.3382,-9.3377,-9.338,-9.3135,-9.3103,-9.3401,-9.3401,-9.3401,-9.3401,-9.3401,-9.3401,-9.2836,-9.2964,-9.2952,-9.3092,-9.3104,-9.3197,-9.3225,-9.3261,-9.3285,-9.3392,-9.3451,-9.345,-9.3467,-9.3532,-9.3593,-9.3591,-9.3618,-9.3672,-9.3659,-9.343,-9.3398,-9.3366,-9.3336,-9.3678,-9.3678,-9.3898,-9.39,-9.3902]}]]